Location: Bois de la Silve
(44.4667°N, 6.7833°E)
Time: 08:49:07
(UTC+00:00)

CZ-2D R/B - Pass Details

Date: 14 July 2020
Orbit: 552 x 639 km, 97.9° (Epoch: 14 August)

Event Time Altitude Azimuth Distance (km) Brightness Sun altitude
Rises 02:38:08 0° 14° (NNE) 2,931 8.2 -12.3°
Reaches altitude 10° 02:40:22 10° 15° (NNE) 2,009 7.2 -12.0°
Maximum altitude 02:44:44 79° 102° (ESE) 633 3.6 -11.5°
Enters shadow 02:48:59 10° 190° (S) 1,943 5.6 -10.9°
